UNISAT-6 (40012 NORAD) Tracking and Keplerian Element Data

This shows tracking and keplerian element data for the satellite.

Feedback or suggestion? Click here.




ElementValue
Catalog40012
NameUNISAT-6
Epoch Orbit38995
Epoch Day261.81892527
Epoch Year2021
RAAN99.3109
Inclination97.6709
Eccentricity0.0057146
Argument of Perigee319.5196
Mean Anonmoly40.1769
Mean Motion14.74375311
Decay Rate2.38E-06
L11 40012U 14033C 21261.81892527 .00000238 00000-0 42400-4 0 9999
L22 40012 97.6709 99.3109 0057146 319.5196 40.1769 14.74375311389952

Live tracking and technical data element details for UNISAT-6 (NORAD 40012). UNISAT-6 can be tracked NOW for your location showing map with azimuth and elevation plus other details from your city location.

Track the satellite on the map from your city or location and see movement details for azimuth, elevation, latitude, longitude, range, height, and movement on the map or in text.







IsCatalogInMostPopularTable: catalog: 40012, numindb: 540
Update: records affected: 1



GetName: 40012 UNISAT-6

Hit Count: updated at: Fri, 24 Sep 2021 19:15:53 GMT